Location: Unspecified
(43.3830°N, 0.0000°E)
Time: 07:45:51
(UTC+00:00)

Explorer 7 - Pass Details

Date: 03 July 2019
Orbit: 485 x 680 km, 50.3° (Epoch: 22 July)

Event Time Altitude Azimuth Distance (km) Brightness Sun altitude
Rises 09:35:45 0° 299° (WNW) 2,787 10.1 53.3°
Reaches altitude 10° 09:37:59 10° 302° (WNW) 1,919 9.3 53.7°
Maximum altitude 09:42:23 68° 26° (NNE) 664 8.2 54.4°
Drops below altitude 10° 09:47:02 10° 110° (ESE) 2,032 10.5 55.2°
Sets 09:49:27 0° 113° (ESE) 2,965 11.1 55.6°
